COSMOS 2251 DEB, 34574

Orbit data source: Space-Track

COSMOS 2251 DEB, 34574 is space debris in LEO originally from a launch on Wed, 16 Jun 1993 UTC launched from the Plesetsk Missile And Space Complex (PKMTR). The debris from Iridium 33, an American commercial communications satellite, has been tracked extensively since its accidental collision with the defunct Russian satellite Cosmos 2251 in 2009. This event, occurring at high speed in low Earth orbit (LEO), generated thousands of pieces of space debris, significantly increasing the risk of further collisions. The Iridium 33 debris cloud has impacted space traffic management and orbital debris mitigation strategies, making it a subject of ongoing study in space situational awareness.

Loading next visibility...
Identifier
34574, 1993-036VL
Orbit
LEO
Country
Flag of CISCIS
Related business
Manufacturer
Unknown
Mission
Spacecraft
Bus & Motor
Unknown
Mass
Unknown
Launch date (UTC)
1993-06-16 (33 years ago)
Launch vehicle
Unknown
Launch site
Plesetsk Missile And Space Complex (PKMTR)
Object type
Payload
Rocket body
Debris
Shape & HBR
Unknown shape, 0.1 m
Radar Cross Section
Medium (>0.1 m² and <1 m²)

Expand to show TLE details & history
Last TLE update: 17 hours ago

TLE from 17 hours ago
0 COSMOS 2251 DEB
1 34574U 93036VL  26165.13447670  .00006020  00000-0  90543-3 0  9998
2 34574  74.0683  47.0465 0063416  21.7091 106.0682 14.73312681914776
Epoch: 2026-06-14T03:13Z
TLE epoch observation values (Epoch: 2026-06-14T03:13:38.786Z)
Latitude
48.94325°
Longitude
-102.82815°
Altitude
670.494 km
Speed
7.52 km/s
True Right ascension
13h 52m 05s
True Declination
48° 46' 15"
Sunlit
Object was in daylight at epoch
Visualization orbit readout
Latitude
Unknown
Longitude
Unknown
Altitude
Unknown
Speed
Unknown
Apparent Right ascension
Unknown
Apparent Declination
Unknown
Sunlit
N/A
Visualization observer readout
Local Sidereal Time
06:44:18
Azimuth
Unknown
Elevation
Unknown
Doppler factor
Unknown
Orbital elements
Apogee altitude
692.65 km
Perigee altitude
603.535 km
Semi-major axis
7,026.23 km
Eccentricity
0.00634
Inclination
74.0683°
RAAN
47.0465°
Arg. of periapsis
21.7091°
True anomaly
106.76496°
Mean anomaly
106.0682°
Eccentric anomaly
106.41673°
Mean motion
3.68519 °/min
Orbital period
97.69 mins
BSTAR
0.00090543

Documentation

Showing up to 5 results
|